This demonstration page uses our WeatherBlox Daily Observations layout. Learn more.

Left ArrowRight Arrow

41.55636, -103.73856

Hourly Observations for February 29, 2020

Temp ( °F °C ) Dew Point ( °F °C ) Humidity (%) Winds ( mph kmh ) Pressure ( in mb ) Visibility ( mi km ) Precip ( " mm )
12:58 am 00:58 Clear 41 5 21 -6 45 45 W 12 19 30.26 1025 10 16 N/A
1:58 am 01:58 Clear 36 2.4 22 -5.6 56 56 W 9 15 30.27 1025 10 16 N/A
2:58 am 02:58 Clear 34 1.2 22 -5.5 61 61 SW 7 11 30.25 1024 10 16 N/A
3:58 am 03:58 Clear 34 1.3 22 -5.7 60 60 SW 5 7 30.21 1023 10 16 N/A
4:58 am 04:58 Clear 35 1.7 23 -5.1 61 61 SSW 14 22 30.18 1022 10 16 N/A
5:58 am 05:58 Clear 35 1.5 22 -5.8 59 59 W 5 7 30.14 1021 10 16 N/A
6:58 am 06:58 Clear 37 2.5 22 -5.7 55 55 SSW 22 35 30.09 1019 10 16 N/A
7:58 am 07:58 Clear 36 2.3 21 -6 55 55 SSW 21 33 30.06 1018 10 16 N/A
8:58 am 08:58 Clear 37 2.7 20 -6.6 51 51 SSW 21 33 30.00 1016 10 16 N/A
9:58 am 09:58 Clear 34 1.1 20 -6.9 56 56 WSW 9 15 29.99 1016 10 16 N/A
10:58 am 10:58 Clear 34 1.2 18 -7.7 52 52 SW 10 17 29.96 1015 10 16 N/A
11:58 am 11:58 Clear 33 0.6 19 -7 57 57 SW 13 20 29.96 1015 10 16 N/A
12:58 pm 12:58 Partly Cloudy 33 0.7 18 -7.8 53 53 SW 12 19 29.96 1015 10 16 N/A
1:58 pm 13:58 Partly Cloudy 42 5.7 13 -10.6 30 30 SW 15 24 29.93 1014 10 16 N/A
2:58 pm 14:58 Sunny 45 7.3 13 -10.7 27 27 WSW 23 37 29.92 1013 10 16 N/A
3:58 pm 15:58 Sunny 51 10.6 14 -9.8 23 23 W 17 28 29.88 1012 10 16 N/A
4:58 pm 16:58 Sunny 52 11 16 -8.8 24 24 W 20 31 29.88 1012 10 16 N/A
5:58 pm 17:58 Sunny 50 10 18 -7.9 28 28 WSW 15 24 29.87 1012 10 16 N/A
6:58 pm 18:58 Sunny 53 11.6 17 -8.3 24 24 W 18 30 29.83 1010 10 16 N/A
7:58 pm 19:58 Sunny 55 12.7 15 -9.2 21 21 W 15 24 29.78 1009 10 16 N/A
8:58 pm 20:58 Sunny 55 13 16 -8.7 21 21 W 17 28 29.75 1008 10 16 N/A
9:58 pm 21:58 Sunny 57 14 18 -8 21 21 WNW 7 11 29.74 1007 10 16 N/A
10:58 pm 22:58 Mostly Sunny 56 13.1 15 -9.4 20 20 WNW 13 20 29.75 1008 10 16 N/A
11:58 pm 23:58 Mostly Sunny 53 11.7 18 -7.9 25 25 WNW 7 11 29.77 1008 10 16 N/A

Powered by AerisWeather